Find Starlink 32793

NORAD ID: 62874 Int'l Des: 2025-022 Owner: SPXS Country: US Constellation: starlink operational
LEOCIRCULAR

当前视图

正在加载3D地球...

About Starlink 32793

Starlink 32793 (NORAD 62874) is a starlink constellation satellite (v2 mini) launched Feb 2, 2025 by SPXS of US. It operates in LEO, CIRCULAR orbit with a mass of 730.00 kg.

关于 Starlink 32793

正在加载描述...

即将过境

Passes for default location (London). Set your location on the main map for personalized predictions.

高度历史

Loading altitude history...

两行轨道根数

1 62874U 25022W 26169.74875603 .00023440 00000-0 70267-3 0 9990
2 62874 53.1607 20.1438 0001200 111.1775 248.9356 15.34402116 77373
Epoch: Jun 18, 2026 • Age: 8 hours

当前状态

高度 462.9 km
速度 7.64 km/s
星下点 10.84°N, 91.82°E
发射日期 Feb 2, 2025
运行时间 1.3 years
类型 internet

技术详情

分类 Payload
质量 730.00 kg
干质量 700.00 kg
总质量 730.00 kg
长度 0.30 m
直径 4.10 m
跨度 29.00 m
形状 Box + pan
制造商 SPXS
平台类型 Starlink V2M
阶段状态 In Orbit
所有者/国家 SPXS/US

Most Searched